sat.trackr.live / text

‹ back to catalog

ONEWEB-0261

NORAD 48979 · 2021-060N

PAYLOAD ACTIVE UNKNOWN

§ Identity

Operator
Country
UK
Launch date
2021-07-01
Launch site
VOSTO
Launch vehicle
Mass (kg)
RCS (m²)

Purposes: comms

External: N2YO · Heavens-Above · Gunter

§ Orbital elements

Epoch: 2026-05-25T04:25:09.571584Z

Period
109.37 min
Inclination
87.9103°
Eccentricity
0.0001795
Mean motion
13.16595168 rev/d
Perigee alt
1,196.4 km
Apogee alt
1,199.1 km
Semi-major
7,575.9 km
B*
-2.9494e-6
RAAN
233.3513°
Arg perigee
91.6772°
Mean anomaly
268.4565°
Rev number
23,663

§ Raw data

ONEWEB-02611 48979U 21060N   26145.18413856  .00000012  00000+0 -29494-5 0  99962 48979  87.9103 233.3513 0001795  91.6772 268.4565 13.16595168236632

JSON: /api/v1/satellites/48979 · /tle

For live sub-satellite position, see the globe view (requires WebGL).

§ Visibility from observer

Set your observer location to see the next 7 days of passes ≥ 10°. The values pass through the URL so the page stays shareable.

No JS? Fill the form by hand. The geolocation button needs JavaScript.